TimeCST,TemperatureF,Dew PointF,Humidity,Sea Level PressureIn,VisibilityMPH,Wind Direction,Wind SpeedMPH,Gust SpeedMPH,PrecipitationIn,Events,Conditions,WindDirDegrees,DateUTC
12:13 AM,-4.0,-7.6,85,29.67,10.0,Calm,Calm,-,N/A,,Clear,0,2014-02-14 06:13:00
12:33 AM,-5.8,-7.6,92,29.68,10.0,Calm,Calm,-,N/A,,Clear,0,2014-02-14 06:33:00
12:53 AM,-5.8,-9.4,84,29.68,10.0,NW,3.5,-,N/A,,Clear,310,2014-02-14 06:53:00
1:13 AM,-5.8,-9.4,84,29.69,10.0,Calm,Calm,-,N/A,,Clear,0,2014-02-14 07:13:00
1:33 AM,-7.6,-9.4,92,29.69,10.0,Calm,Calm,-,N/A,,Clear,0,2014-02-14 07:33:00
1:53 AM,-7.6,-11.2,84,29.70,10.0,Calm,Calm,-,N/A,,Clear,0,2014-02-14 07:53:00
2:13 AM,-7.6,-11.2,84,29.70,10.0,Calm,Calm,-,N/A,,Clear,0,2014-02-14 08:13:00
2:33 AM,-7.6,-11.2,84,29.70,10.0,NNW,3.5,-,N/A,,Clear,330,2014-02-14 08:33:00
2:53 AM,-9.4,-11.2,92,29.70,10.0,NNW,4.6,-,N/A,,Clear,330,2014-02-14 08:53:00
3:13 AM,-9.4,-11.2,92,29.71,10.0,NNW,3.5,-,N/A,,Clear,330,2014-02-14 09:13:00
3:33 AM,-9.4,-13.0,84,29.71,10.0,Calm,Calm,-,N/A,,Clear,0,2014-02-14 09:33:00
3:53 AM,-9.4,-13.0,84,29.72,10.0,NNW,3.5,-,N/A,,Clear,330,2014-02-14 09:53:00
4:12 AM,-9.4,-14.8,77,29.73,10.0,Calm,Calm,-,N/A,,Clear,0,2014-02-14 10:12:00
4:33 AM,-9.4,-14.8,77,29.74,10.0,Calm,Calm,-,N/A,,Clear,0,2014-02-14 10:33:00
4:52 AM,-9.4,-14.8,77,29.75,10.0,Calm,Calm,-,N/A,,Clear,0,2014-02-14 10:52:00
5:13 AM,-9.4,-14.8,77,29.75,10.0,Calm,Calm,-,N/A,,Clear,0,2014-02-14 11:13:00
5:33 AM,-11.2,-14.8,84,29.76,10.0,Calm,Calm,-,N/A,,Clear,0,2014-02-14 11:33:00
5:52 AM,-11.2,-14.8,84,29.76,10.0,Calm,Calm,-,N/A,,Clear,0,2014-02-14 11:52:00
6:13 AM,-11.2,-14.8,84,29.77,10.0,Calm,Calm,-,N/A,,Clear,0,2014-02-14 12:13:00
6:33 AM,-11.2,-14.8,84,29.78,10.0,Calm,Calm,-,N/A,,Clear,0,2014-02-14 12:33:00
6:52 AM,-11.2,-16.6,77,29.78,10.0,Calm,Calm,-,N/A,,Clear,0,2014-02-14 12:52:00
7:13 AM,-11.2,-16.6,77,29.80,10.0,NW,3.5,-,N/A,,Clear,320,2014-02-14 13:13:00
7:33 AM,-11.2,-16.6,77,29.81,10.0,NW,3.5,-,N/A,,Clear,320,2014-02-14 13:33:00
7:52 AM,-11.2,-16.6,77,29.82,10.0,Calm,Calm,-,N/A,,Clear,0,2014-02-14 13:52:00
8:13 AM,-11.2,-14.8,84,29.83,10.0,Calm,Calm,-,N/A,,Clear,0,2014-02-14 14:13:00
8:33 AM,-9.4,-13.0,84,29.83,10.0,Calm,Calm,-,N/A,,Clear,0,2014-02-14 14:33:00
8:53 AM,-7.6,-13.0,77,29.84,10.0,North,3.5,-,N/A,,Clear,350,2014-02-14 14:53:00
9:13 AM,-7.6,-11.2,84,29.84,10.0,NNW,5.8,-,N/A,,Clear,340,2014-02-14 15:13:00
9:33 AM,-5.8,-11.2,77,29.84,10.0,NNW,4.6,-,N/A,,Clear,330,2014-02-14 15:33:00
9:53 AM,-4.0,-9.4,78,29.85,10.0,North,4.6,-,N/A,,Clear,360,2014-02-14 15:53:00
10:13 AM,-2.2,-9.4,71,29.85,10.0,NW,5.8,-,N/A,,Clear,320,2014-02-14 16:13:00
10:33 AM,-2.2,-9.4,71,29.85,10.0,NW,8.1,-,N/A,,Clear,310,2014-02-14 16:33:00
10:52 AM,-0.4,-9.4,66,29.86,10.0,WNW,6.9,-,N/A,,Clear,300,2014-02-14 16:52:00
11:13 AM,-0.4,-9.4,66,29.87,10.0,NW,8.1,-,N/A,,Clear,320,2014-02-14 17:13:00
11:33 AM,1.4,-7.6,66,29.86,10.0,NW,8.1,-,N/A,,Clear,320,2014-02-14 17:33:00
11:52 AM,1.4,-7.6,66,29.86,10.0,NNW,9.2,-,N/A,,Clear,330,2014-02-14 17:52:00
12:13 PM,3.2,-5.8,66,29.85,10.0,NW,8.1,-,N/A,,Clear,320,2014-02-14 18:13:00
12:33 PM,5.0,-5.8,61,29.85,10.0,NW,8.1,-,N/A,,Clear,320,2014-02-14 18:33:00
12:52 PM,6.8,-5.8,56,29.85,10.0,NW,9.2,-,N/A,,Clear,320,2014-02-14 18:52:00
1:13 PM,6.8,-2.2,67,29.85,10.0,WNW,8.1,-,N/A,,Clear,300,2014-02-14 19:13:00
1:33 PM,8.6,-2.2,62,29.85,10.0,NNW,5.8,-,N/A,,Clear,330,2014-02-14 19:33:00
1:52 PM,8.6,-2.2,62,29.85,10.0,NW,9.2,-,N/A,,Clear,320,2014-02-14 19:52:00
2:13 PM,10.4,-0.4,62,29.85,10.0,NW,9.2,-,N/A,,Clear,310,2014-02-14 20:13:00
2:33 PM,10.4,-0.4,62,29.85,10.0,NW,5.8,-,N/A,,Clear,320,2014-02-14 20:33:00
2:52 PM,10.4,-0.4,62,29.85,10.0,NW,8.1,-,N/A,,Clear,310,2014-02-14 20:52:00
3:13 PM,10.4,1.4,67,29.86,10.0,NNW,3.5,-,N/A,,Clear,340,2014-02-14 21:13:00
3:33 PM,10.4,1.4,67,29.87,10.0,NNW,4.6,-,N/A,,Clear,340,2014-02-14 21:33:00
3:52 PM,12.2,1.4,62,29.87,10.0,NW,6.9,-,N/A,,Clear,310,2014-02-14 21:52:00
4:13 PM,10.4,1.4,67,29.88,10.0,NW,9.2,-,N/A,,Clear,310,2014-02-14 22:13:00
4:33 PM,10.4,-0.4,62,29.89,10.0,NW,8.1,-,N/A,,Clear,320,2014-02-14 22:33:00
4:52 PM,8.6,-0.4,67,29.90,10.0,WNW,6.9,-,N/A,,Clear,300,2014-02-14 22:52:00
5:13 PM,8.6,-0.4,67,29.90,10.0,NW,4.6,-,N/A,,Clear,320,2014-02-14 23:13:00
5:33 PM,6.8,-0.4,72,29.90,10.0,Calm,Calm,-,N/A,,Clear,0,2014-02-14 23:33:00
5:52 PM,5.0,-0.4,78,29.91,10.0,NNW,4.6,-,N/A,,Clear,340,2014-02-14 23:52:00
6:13 PM,3.2,-2.2,78,29.91,10.0,Calm,Calm,-,N/A,,Clear,0,2014-02-15 00:13:00
6:33 PM,1.4,-2.2,85,29.91,10.0,Calm,Calm,-,N/A,,Clear,0,2014-02-15 00:33:00
6:53 PM,-2.2,-5.8,85,29.91,10.0,Calm,Calm,-,N/A,,Clear,0,2014-02-15 00:53:00
7:13 PM,-2.2,-5.8,85,29.91,10.0,Calm,Calm,-,N/A,,Clear,0,2014-02-15 01:13:00
7:33 PM,-5.8,-9.4,84,29.91,10.0,Calm,Calm,-,N/A,,Clear,0,2014-02-15 01:33:00
7:53 PM,-7.6,-11.2,84,29.91,10.0,Calm,Calm,-,N/A,,Mostly Cloudy,0,2014-02-15 01:53:00
8:12 PM,-7.6,-11.2,84,29.90,10.0,Calm,Calm,-,N/A,,Scattered Clouds,0,2014-02-15 02:12:00
8:33 PM,-9.4,-14.8,77,29.91,10.0,Calm,Calm,-,N/A,,Clear,0,2014-02-15 02:33:00
8:53 PM,-13.0,-16.6,84,29.90,10.0,Calm,Calm,-,N/A,,Clear,0,2014-02-15 02:53:00
9:12 PM,-11.2,-16.6,77,29.89,10.0,Calm,Calm,-,N/A,,Clear,0,2014-02-15 03:12:00
9:33 PM,-14.8,-18.4,84,29.89,10.0,ESE,3.5,-,N/A,,Clear,110,2014-02-15 03:33:00
9:53 PM,-14.8,-18.4,84,29.89,10.0,Calm,Calm,-,N/A,,Scattered Clouds,0,2014-02-15 03:53:00
10:12 PM,-13.0,-16.6,84,29.89,10.0,Calm,Calm,-,N/A,,Mostly Cloudy,0,2014-02-15 04:12:00
10:33 PM,-13.0,-18.4,77,29.90,10.0,Calm,Calm,-,N/A,,Scattered Clouds,0,2014-02-15 04:33:00
10:53 PM,-14.8,-18.4,84,29.90,10.0,Calm,Calm,-,N/A,,Clear,0,2014-02-15 04:53:00
11:12 PM,-14.8,-18.4,84,29.90,10.0,Calm,Calm,-,N/A,,Clear,0,2014-02-15 05:12:00
11:33 PM,-14.8,-18.4,84,29.89,10.0,Calm,Calm,-,N/A,,Scattered Clouds,0,2014-02-15 05:33:00
11:53 PM,-14.8,-18.4,84,29.89,10.0,Calm,Calm,-,N/A,,Mostly Cloudy,0,2014-02-15 05:53:00